TimeEDT,TemperatureF,Dew PointF,Humidity,Sea Level PressureIn,VisibilityMPH,Wind Direction,Wind SpeedMPH,Gust SpeedMPH,PrecipitationIn,Events,Conditions,WindDirDegrees,DateUTC
12:54 AM,28.0,27.0,96,29.73,3.0,North,3.5,-,0.00,Snow,Light Snow,360,2013-03-26 04:54:00
1:01 AM,28.4,26.6,93,29.65,3.0,North,3.5,-,0.00,Snow,Light Snow,360,2013-03-26 05:01:00
1:23 AM,28.4,26.6,93,29.66,4.0,NNW,4.6,-,0.00,Snow,Light Snow,340,2013-03-26 05:23:00
1:45 AM,28.4,26.6,93,29.66,7.0,NNW,4.6,-,0.00,,Overcast,330,2013-03-26 05:45:00
1:54 AM,28.0,26.1,92,29.74,9.0,NNW,4.6,-,0.00,,Overcast,330,2013-03-26 05:54:00
2:01 AM,28.4,26.6,93,29.66,10.0,NNW,4.6,-,N/A,,Overcast,330,2013-03-26 06:01:00
2:13 AM,28.4,26.6,93,29.67,10.0,NNW,5.8,-,N/A,,Overcast,330,2013-03-26 06:13:00
2:54 AM,28.0,26.1,92,29.75,8.0,NW,6.9,-,N/A,,Overcast,320,2013-03-26 06:54:00
3:54 AM,28.0,26.1,92,29.76,8.0,NW,6.9,-,N/A,,Overcast,310,2013-03-26 07:54:00
4:54 AM,28.0,26.1,92,29.77,3.0,WNW,9.2,-,0.00,Snow,Light Snow,300,2013-03-26 08:54:00
5:04 AM,28.4,26.6,93,29.70,1.8,NW,8.1,-,0.00,Snow,Light Snow,310,2013-03-26 09:04:00
5:18 AM,28.4,26.6,93,29.71,3.0,NW,10.4,-,0.00,Snow,Light Snow,320,2013-03-26 09:18:00
5:28 AM,28.4,26.6,93,29.71,3.0,NW,9.2,-,0.00,Snow,Light Snow,320,2013-03-26 09:28:00
5:54 AM,27.0,25.0,92,29.79,5.0,NW,10.4,-,0.00,Snow,Light Snow,310,2013-03-26 09:54:00
6:26 AM,26.6,24.8,93,29.73,10.0,WNW,8.1,-,0.00,,Overcast,300,2013-03-26 10:26:00
6:50 AM,26.6,24.8,93,29.74,10.0,NW,11.5,-,0.00,,Overcast,320,2013-03-26 10:50:00
6:54 AM,27.0,24.1,89,29.81,10.0,NW,13.8,-,0.00,,Overcast,320,2013-03-26 10:54:00
8:50 AM,26.6,24.8,93,29.79,2.5,NW,8.1,-,0.01,Snow,Light Snow,310,2013-03-26 12:50:00
8:54 AM,27.0,24.1,89,29.87,4.0,WNW,6.9,-,0.01,Snow,Light Snow,300,2013-03-26 12:54:00
9:06 AM,26.6,24.8,93,29.80,7.0,NW,9.2,-,0.00,Snow,Light Snow,310,2013-03-26 13:06:00
9:38 AM,26.6,24.8,93,29.81,2.5,NW,8.1,-,0.00,Snow,Light Snow,310,2013-03-26 13:38:00
9:52 AM,28.4,24.8,86,29.81,4.0,NW,8.1,-,0.00,Snow,Light Snow,310,2013-03-26 13:52:00
9:54 AM,28.0,25.0,88,29.89,5.0,WNW,9.2,-,0.00,Snow,Light Snow,300,2013-03-26 13:54:00
10:54 AM,28.9,26.1,89,29.90,10.0,WNW,16.1,-,0.00,,Overcast,300,2013-03-26 14:54:00
11:54 AM,30.9,26.1,82,29.91,10.0,NW,12.7,-,N/A,,Mostly Cloudy,310,2013-03-26 15:54:00
12:18 PM,30.2,26.6,86,29.84,8.0,WNW,12.7,-,N/A,,Overcast,290,2013-03-26 16:18:00
12:54 PM,32.0,27.0,82,29.91,5.0,WNW,17.3,-,0.00,Snow,Light Snow,300,2013-03-26 16:54:00
1:26 PM,33.8,26.6,75,29.84,10.0,WNW,15.0,-,0.00,,Overcast,290,2013-03-26 17:26:00
1:51 PM,33.8,26.6,75,29.84,10.0,WNW,18.4,-,0.00,,Mostly Cloudy,300,2013-03-26 17:51:00
1:54 PM,35.1,26.1,70,29.91,10.0,WNW,17.3,-,0.00,,Mostly Cloudy,300,2013-03-26 17:54:00
2:05 PM,35.6,26.6,70,29.84,10.0,WNW,18.4,24.2,N/A,,Mostly Cloudy,290,2013-03-26 18:05:00
2:19 PM,35.6,24.8,65,29.84,10.0,WNW,17.3,25.3,N/A,,Scattered Clouds,290,2013-03-26 18:19:00
2:54 PM,36.0,25.0,64,29.91,10.0,NW,19.6,-,0.00,Rain,Light Rain,310,2013-03-26 18:54:00
3:54 PM,35.1,24.1,64,29.91,10.0,WNW,12.7,-,0.00,,Overcast,300,2013-03-26 19:54:00
4:54 PM,36.0,24.1,62,29.91,10.0,West,17.3,24.2,N/A,,Overcast,270,2013-03-26 20:54:00
5:14 PM,30.2,26.6,86,29.86,6.0,North,9.2,-,0.00,Snow,Light Snow,350,2013-03-26 21:14:00
5:21 PM,30.2,28.4,93,29.86,2.5,North,11.5,-,0.00,Snow,Light Snow,350,2013-03-26 21:21:00
5:27 PM,30.2,28.4,93,29.86,1.8,North,12.7,-,0.00,Snow,Light Snow,350,2013-03-26 21:27:00
5:34 PM,30.2,28.4,93,29.87,2.0,North,10.4,-,0.00,Snow,Light Snow,350,2013-03-26 21:34:00
5:49 PM,30.2,28.4,93,29.87,4.0,NNW,12.7,-,0.00,Snow,Light Snow,330,2013-03-26 21:49:00
5:54 PM,30.9,28.9,92,29.95,3.0,NNW,9.2,-,0.00,Snow,Light Snow,330,2013-03-26 21:54:00
6:00 PM,30.2,28.4,93,29.88,1.8,NNW,11.5,-,0.00,Snow,Light Snow,330,2013-03-26 22:00:00
6:10 PM,30.2,28.4,93,29.88,0.5,NNW,12.7,-,0.00,Fog-Snow,Snow,330,2013-03-26 22:10:00
6:17 PM,30.2,28.4,93,29.88,0.2,NNW,13.8,24.2,0.00,Fog-Snow,Heavy Snow,330,2013-03-26 22:17:00
6:34 PM,30.2,26.6,86,29.88,0.2,West,15.0,-,0.00,Fog-Snow,Snow,280,2013-03-26 22:34:00
6:42 PM,30.2,26.6,86,29.88,0.5,West,15.0,21.9,0.01,Fog-Snow,Snow,270,2013-03-26 22:42:00
6:49 PM,30.2,26.6,86,29.88,1.0,West,13.8,21.9,0.01,Snow,Light Snow,270,2013-03-26 22:49:00
6:52 PM,30.2,26.6,86,29.88,3.0,West,10.4,-,0.01,Snow,Light Snow,270,2013-03-26 22:52:00
6:54 PM,30.0,27.0,88,29.96,7.0,West,11.5,-,0.01,Snow,Light Snow,260,2013-03-26 22:54:00
7:08 PM,30.2,26.6,86,29.89,10.0,West,11.5,-,0.00,,Overcast,270,2013-03-26 23:08:00
7:54 PM,30.0,27.0,88,29.99,10.0,West,9.2,18.4,0.00,,Overcast,270,2013-03-26 23:54:00
8:04 PM,30.2,26.6,86,29.91,10.0,West,9.2,-,N/A,,Overcast,270,2013-03-27 00:04:00
8:54 PM,30.9,27.0,85,30.01,10.0,WNW,12.7,-,N/A,,Overcast,290,2013-03-27 00:54:00
9:12 PM,30.2,26.6,86,29.93,10.0,WNW,12.7,-,N/A,,Overcast,290,2013-03-27 01:12:00
9:46 PM,30.2,26.6,86,29.95,10.0,WNW,9.2,-,N/A,,Overcast,290,2013-03-27 01:46:00
9:54 PM,30.9,27.0,85,30.02,10.0,WNW,11.5,-,0.00,Snow,Light Snow,290,2013-03-27 01:54:00
10:11 PM,30.2,26.6,86,29.95,7.0,WNW,10.4,-,0.00,Snow,Light Snow,290,2013-03-27 02:11:00
10:22 PM,30.2,28.4,93,29.96,1.8,WNW,12.7,-,0.00,Snow,Light Snow,290,2013-03-27 02:22:00
10:37 PM,30.2,28.4,93,29.96,0.5,WNW,12.7,-,0.01,Fog-Snow,Snow,300,2013-03-27 02:37:00
10:43 PM,30.2,28.4,93,29.96,1.0,WNW,11.5,-,0.01,Snow,Light Snow,300,2013-03-27 02:43:00
10:46 PM,30.2,28.4,93,29.96,2.5,WNW,10.4,-,0.01,Snow,Light Snow,290,2013-03-27 02:46:00
10:48 PM,30.2,28.4,93,29.96,4.0,WNW,11.5,-,0.01,Snow,Light Snow,290,2013-03-27 02:48:00
10:54 PM,30.0,27.0,88,30.03,7.0,WNW,11.5,-,0.01,Snow,Light Snow,300,2013-03-27 02:54:00
11:01 PM,30.2,26.6,86,29.96,7.0,WNW,10.4,-,0.00,Snow,Light Snow,300,2013-03-27 03:01:00
11:27 PM,30.2,26.6,86,29.96,3.0,WNW,11.5,-,0.00,Snow,Light Snow,300,2013-03-27 03:27:00
11:54 PM,30.0,27.0,88,30.03,2.0,WNW,12.7,-,0.00,Snow,Light Snow,300,2013-03-27 03:54:00